This is the latest recevied weather packets stored in our database for station/object N4AR. If no packets are shown the sender has not sent any weather packets the latest 10 day(s).
| Time | Temp. | Humidity | Pressure | Rain* | Wind** | Luminosity | Snow |
|---|---|---|---|---|---|---|---|
| 1777727254 | 13.33° C | 72% | 1013.1 hPa | 0 mm | - | 77 W/m² | - |
| 1777726951 | 13.33° C | 70% | 1013 hPa | 0 mm | - | 95 W/m² | - |
| 1777726647 | 13.33° C | 71% | 1013.1 hPa | 0 mm | - | 95 W/m² | - |
| 1777726346 | 13.33° C | 70% | 1013.1 hPa | 0 mm | - | 78 W/m² | - |
| 1777726042 | 13.33° C | 72% | 1013.2 hPa | 0 mm | - | 74 W/m² | - |
| 1777725739 | 13.33° C | 71% | 1013.3 hPa | 0 mm | - | 62 W/m² | - |
| 1777725437 | 13.33° C | 71% | 1013.1 hPa | 0 mm | - | 55 W/m² | - |
| 1777725134 | 13.33° C | 70% | 1013.3 hPa | 0 mm | - | 47 W/m² | - |
| 1777724830 | 13.33° C | 70% | 1013.3 hPa | 0 mm | - | 43 W/m² | - |
| 1777724527 | 13.33° C | 70% | 1013.4 hPa | 0 mm | - | 39 W/m² | - |
| 1777724225 | 13.33° C | 71% | 1013.2 hPa | 0 mm | - | 42 W/m² | - |
| 1777723923 | 12.78° C | 72% | 1013.3 hPa | 0 mm | - | 37 W/m² | - |
| 1777723619 | 12.78° C | 73% | 1013.5 hPa | 0 mm | - | 36 W/m² | - |
| 1777723316 | 12.78° C | 77% | 1013.5 hPa | 0 mm | - | 37 W/m² | - |
| 1777723014 | 12.78° C | 78% | 1013.4 hPa | 0 mm | - | 35 W/m² | - |
| 1777722709 | 12.78° C | 78% | 1013.6 hPa | 0 mm | - | 33 W/m² | - |
| 1777722406 | 12.78° C | 78% | 1013.5 hPa | 0 mm | - | 29 W/m² | - |
| 1777722103 | 12.22° C | 79% | 1013.5 hPa | 0 mm | - | 24 W/m² | - |
| 1777721800 | 12.22° C | 81% | 1013.5 hPa | 0 mm | - | 23 W/m² | - |
| 1777721499 | 12.22° C | 82% | 1013.4 hPa | 0 mm | - | 22 W/m² | - |
| 1777721196 | 12.22° C | 83% | 1013.5 hPa | 0 mm | - | 19 W/m² | - |
| 1777720894 | 12.22° C | 84% | 1013.6 hPa | 0 mm | - | 18 W/m² | - |
| 1777720591 | 12.22° C | 84% | 1013.4 hPa | 0 mm | - | 15 W/m² | - |
| 1777720288 | 11.67° C | 86% | 1013.5 hPa | 0 mm | - | 15 W/m² | - |
| 1777719986 | 11.11° C | 91% | 1013.4 hPa | 0 mm | - | 13 W/m² | - |
* Rain latest hour (hover to see other rain measurements)
** Current wind speed in m/s (hover to see current wind gust speed)